GW3621 Weather Reports


time (UTC)temp
F
wind
direction
speed
knots
gust
knots
rain 1hr
in
rain 24hr
in
rain mn
in
humidity
%
barometer
mb
20260510073031 66 0 0.0 0.0 0.00 0.39 0.01 94 1013.8
20260510071532 67 0 0.0 0.0 0.00 0.39 0.01 94 1013.6
20260510070034 67 0 0.0 0.0 0.00 0.39 0.01 94 1013.3
20260510064529 67 0 0.0 1.7 0.01 0.39 0.01 94 1013.3
20260510063037 67 0 0.0 1.7 0.01 0.39 0.01 94 1013.7
20260510061533 67 0 0.0 0.0 0.01 0.39 0.01 94 1013.6
20260510060036 67 0 0.0 0.0 0.01 0.39 0.01 94 1013.1
20260510054532 67 0 0.0 0.0 0.00 0.38 0.00 94 1013.8
20260510053031 67 0 0.0 0.0 0.00 0.38 0.00 94 1013.9
20260510051531 67 0 0.0 0.0 0.00 0.38 0.00 94 1013.7
20260510050032 67 0 0.0 0.0 0.00 0.38 0.00 94 1013.8
20260510044532 67 0 0.0 0.0 0.01 0.38 0.00 94 1014.1
20260510043034 67 0 0.0 0.0 0.01 0.38 0.00 94 1014.2
20260510041541 67 0 0.0 0.0 0.01 0.38 0.00 94 1014.1
20260510040033 67 0 0.0 0.0 0.02 0.38 0.00 93 1014.5
20260510034534 67 0 0.0 0.0 0.01 0.37 0.37 93 1014.3
20260510033029 67 0 0.0 0.0 0.01 0.37 0.37 93 1014.0
20260510031535 67 0 0.0 0.0 0.01 0.37 0.37 93 1014.0
20260510030032 67 0 0.0 0.0 0.00 0.36 0.36 93 1014.0
20260510024532 67 0 0.0 0.0 0.00 0.37 0.36 93 1014.0
20260510023033 68 0 0.0 0.0 0.00 0.37 0.36 93 1014.0
20260510021536 68 0 0.0 0.0 0.00 0.37 0.36 93 1013.8
20260510020033 68 0 0.0 0.0 0.00 0.37 0.36 93 1013.8
20260510014534 68 0 0.0 0.0 0.00 0.40 0.36 93 1013.6
20260510013038 68 0 0.0 0.0 0.00 0.40 0.36 93 1013.7
20260510011530 68 0 0.0 0.0 0.00 0.40 0.36 93 1013.4
20260510010031 68 0 0.0 0.0 0.01 0.40 0.36 93 1013.6
20260510004534 68 0 0.0 0.0 0.01 0.50 0.36 93 1013.3
20260510003040 68 0 0.0 0.0 0.03 0.50 0.36 93 1013.5
20260510001539 69 0 0.0 0.0 0.03 0.50 0.36 92 1013.3
20260510000031 69 0 0.0 0.0 0.02 0.49 0.35 92 1013.3
20260509234537 69 0 0.0 0.0 0.02 0.49 0.35 92 1013.1
20260509233030 69 0 0.0 0.0 0.00 0.47 0.33 92 1013.1
20260509231530 69 0 0.0 0.0 0.00 0.47 0.33 92 1013.1
20260509230032 69 0 0.0 2.6 0.00 0.47 0.33 92 1012.8
20260509224531 69 0 0.0 1.7 0.00 0.47 0.33 92 1012.7
20260509223030 69 0 0.0 3.5 0.00 0.47 0.33 92 1012.3
20260509221530 69 0 0.0 0.0 0.01 0.47 0.33 92 1012.0
20260509220030 69 0 0.0 0.0 0.01 0.47 0.33 92 1012.2
20260509214537 69 0 0.0 0.0 0.01 0.47 0.33 91 1011.9
20260509213037 70 0 0.0 0.0 0.01 0.47 0.33 92 1012.3
20260509211530 70 0 0.0 0.0 0.00 0.46 0.32 92 1012.2
20260509210034 70 0 0.0 0.0 0.00 0.46 0.32 92 1012.2
20260509204537 70 0 0.0 0.0 0.00 0.46 0.32 92 1012.9
20260509203032 69 0 0.0 0.0 0.00 0.46 0.32 92 1012.7
20260509201531 70 0 0.0 0.0 0.00 0.46 0.32 92 1012.8
20260509200038 69 0 0.0 1.7 0.01 0.46 0.32 92 1012.8
20260509194539 69 0 0.0 1.7 0.03 0.46 0.32 92 1013.0
20260509193038 68 0 0.0 0.0 0.03 0.46 0.32 92 1013.5
20260509191529 68 0 0.0 3.5 0.03 0.46 0.32 92 1014.0
20260509190032 68 0 0.0 0.0 0.02 0.45 0.31 92 1013.8
20260509184535 68 0 0.0 0.0 0.01 0.43 0.29 92 1013.6
20260509183032 68 0 0.0 0.0 0.01 0.43 0.29 92 1013.7
20260509181532 68 279 0.0 2.6 0.02 0.43 0.29 92 1013.8
20260509180029 68 0 0.9 5.2 0.09 0.43 0.29 92 1013.8
20260509174528 68 278 0.0 5.2 0.21 0.42 0.28 92 1013.7
20260509173107 68 0 0.0 6.1 0.27 0.42 0.28 91 1014.0
20260509171536 67 0 0.0 6.1 0.26 0.41 0.27 90 1014.2
20260509170030 68 288 0.9 7.0 0.19 0.34 0.20 88 1014.6
20260509164529 71 344 1.7 11.3 0.05 0.20 0.06 86 1014.6
20260509163030 73 0 0.0 3.5 0.00 0.15 0.01 85 1013.9
20260509161532 74 0 0.9 6.1 0.00 0.15 0.01 85 1013.8
20260509160030 74 0 0.0 5.2 0.00 0.15 0.01 85 1013.8
20260509154534 74 271 0.0 2.6 0.00 0.15 0.01 85 1013.4
20260509153033 73 0 0.0 3.5 0.00 0.15 0.01 86 1013.4
20260509151533 73 0 0.0 3.5 0.00 0.15 0.01 88 1013.4
20260509150028 72 314 0.0 3.5 0.00 0.15 0.01 89 1013.7
20260509144530 71 252 0.0 2.6 0.00 0.15 0.01 91 1013.6
20260509143038 70 0 0.0 0.0 0.00 0.15 0.01 92 1013.8
20260509141532 69 0 0.0 0.0 0.00 0.15 0.01 93 1013.9
20260509140049 69 0 0.0 0.0 0.00 0.15 0.01 93 1014.4
20260509134530 68 0 0.0 0.0 0.00 0.15 0.01 93 1014.3
20260509133030 68 0 0.0 0.0 0.00 0.15 0.01 93 1013.9
20260509131540 68 0 0.0 0.0 0.00 0.15 0.01 94 1013.6
20260509130034 68 0 0.0 0.0 0.00 0.15 0.01 94 1013.8
20260509124535 68 0 0.0 0.0 0.00 0.15 0.01 94 1013.7
20260509123029 67 0 0.0 0.0 0.00 0.15 0.01 94 1013.6
20260509121546 67 0 0.0 1.7 0.00 0.15 0.01 94 1013.3
20260509120036 66 0 0.0 0.0 0.01 0.15 0.01 94 1013.1
20260509114533 66 0 0.0 0.0 0.01 0.15 0.01 94 1013.0
20260509113033 65 0 0.0 0.0 0.01 0.15 0.01 94 1012.9
20260509111530 65 0 0.0 0.0 0.01 0.15 0.01 94 1012.8
20260509110031 65 0 0.0 0.0 0.00 0.14 0.00 93 1012.6
20260509104533 65 0 0.0 0.0 0.00 0.14 0.00 93 1012.4
20260509103035 65 0 0.0 0.0 0.00 0.14 0.00 93 1012.4
20260509101531 65 0 0.0 0.0 0.00 0.14 0.00 93 1012.4
20260509100032 65 0 0.0 0.0 0.00 0.14 0.00 93 1012.0
20260509094532 65 0 0.0 0.0 0.00 0.14 0.00 93 1011.6
20260509093030 65 0 0.0 0.0 0.00 0.14 0.00 93 1011.7
20260509091533 66 0 0.0 0.0 0.00 0.14 0.00 93 1011.9
20260509090032 66 0 0.0 0.0 0.00 0.14 0.00 93 1012.0
20260509084537 66 0 0.0 0.9 0.00 0.14 0.00 93 1012.0
20260509083044 66 0 0.0 2.6 0.00 0.14 0.00 93 1012.2
20260509081530 66 0 0.0 2.6 0.00 0.14 0.00 93 1012.0
20260509080032 66 0 0.0 0.9 0.00 0.14 0.00 93 1012.1
20260509074532 66 0 0.0 1.7 0.00 0.14 0.00 93 1011.7